Dewpoint
22 15 11 6 9 13 16 19 14 15 10 10 11 10 8 7 5 10 15 15 17 14 12 10 13 12 12 10 9 10 10 8 6 4 4 5 5 6 7 7 5 3 4 9 7 9 11 9 4 8 8 7 2 3 4 3 5 6 5 8 7 9 13 16 17 19 21 20 18 19 19 19 21 23 25 24 23 23 23 25 25 25 26 26 26 27
22 12 12 17 17 16 16 20 22 17 13 10 8 6 8 7 6 5 6 11 18 11 12 12 13 12 12 11 11 9 6 4 3 3 2 3 4 5 6 7 5 4 12 5 -0 4 7 7 12 9 7 9 1 4 4 4 5 6 5 7 8 11 15 17 18 18 17 16 17 18 19 21 22 23 23 23 23 24 25 25 25 25 25 25 25 26
13 8 14 17 18 20 19 19 16 13 12 9 6 8 8 7 8 7 13 15 16 13 6 15 12 11 11 10 11 7 6 6 4 3 3 2 1 2 3 5 4 2 2 -1 -3 5 2 13 13 5 5 -1 4 4 4 6 5 5 6 8 10 13 16 16 17 17 15 16 18 18 19 21 23 24 24 24 25 24 25 24 23 24 24 24 24 25
13 14 11 17 17 15 7 16 16 15 14 7 7 9 7 7 5 3 4 15 13 7 6 14 11 10 9 8 8 10 8 4 6 6 6 8 -0 1 1 2 5 4 5 -1 -2 -4 -3 -0 -2 3 5 1 5 7 5 5 5 5 10 8 9 12 12 12 15 13 14 17 17 17 18 19 21 22 24 26 26 24 22 22 22 23 24 23 24 24
9 8 19 19 15 3 2 7 7 9 10 14 9 8 9 6 4 4 5 8 11 13 14 14 13 11 8 5 4 7 11 8 9 3 4 7 9 7 8 7 6 1 1 2 -2 -2 -1 -2 -1 2 6 5 6 9 7 8 4 6 7 8 8 10 9 9 11 8 11 13 9 9 8 11 14 17 19 22 22 21 22 24 23 22 22 24 24 24
12 13 21 15 13 13 8 8 6 10 9 10 9 6 5 3 4 6 7 6 4 1 14 10 2 -1 10 6 3 5 8 6 5 3 2 3 4 5 1 2 5 13 6 1 1 1 3 2 0 3 3 2 1 4 6 5 7 6 7 9 8 10 9 7 7 7 10 8 5 4 3 3 5 7 13 17 19 18 18 18 19 22 23 23 24 24
8 14 13 12 12 12 10 6 4 9 11 8 10 8 7 7 7 7 6 6 4 2 4 14 1 -2 11 9 5 6 6 4 4 3 2 2 3 6 5 2 4 2 2 3 4 3 1 1 1 2 0 1 0 4 6 4 6 6 8 8 8 9 10 11 8 8 12 5 3 3 2 2 2 2 3 6 9 12 13 15 17 20 21 23 23 24
19 16 17 16 13 13 11 10 9 8 9 8 10 10 9 9 7 7 7 6 4 10 8 11 7 1 -2 6 8 7 6 3 1 0 1 1 1 4 4 7 7 8 3 4 3 2 2 3 1 1 1 0 1 8 8 5 5 6 6 8 9 10 10 9 9 9 11 7 5 4 2 5 3 1 1 3 6 9 11 12 14 16 19 20 22 23
13 11 12 13 14 11 8 9 11 10 9 11 11 11 11 9 8 8 8 7 5 2 1 -0 7 -1 -2 5 10 8 4 2 1 0 2 2 4 7 10 9 8 7 5 3 3 3 2 3 2 3 1 -1 2 8 7 4 4 6 6 10 10 8 9 8 8 11 8 9 6 4 2 1 2 2 3 5 9 10 12 12 14 16 17 18 20 21
15 12 13 15 13 11 11 13 14 12 8 11 12 12 11 10 8 9 8 6 3 -2 -3 -2 2 -1 -1 11 9 8 5 3 2 2 4 5 6 8 9 8 7 7 7 4 3 2 3 2 1 2 2 2 2 9 13 10 6 7 8 11 12 8 7 8 8 8 7 6 9 3 2 1 0 1 1 3 7 11 14 14 15 16 16 16 17 20
8 26 24 16 14 12 15 16 14 13 13 16 13 11 10 6 4 7 5 0 3 -7 -2 -2 0 -1 -1 1 9 7 5 8 5 2 5 9 7 7 9 6 8 6 5 4 5 4 3 2 2 2 1 1 1 8 8 7 6 5 8 8 7 6 7 10 9 8 6 5 4 3 2 1 -0 -0 1 3 7 12 14 14 14 15 15 16 17 20
15 20 22 19 25 20 17 14 17 15 15 13 10 9 6 4 3 5 4 2 -8 -3 -0 -0 0 -0 -1 -0 10 7 3 6 4 3 2 5 7 7 8 8 8 6 4 5 5 5 3 2 1 1 1 1 2 7 8 6 7 9 8 8 7 7 7 7 9 8 7 5 5 3 2 1 -0 -0 1 2 2 9 13 12 13 14 16 16 17 17
12 11 13 12 26 16 12 8 12 12 14 9 9 10 5 3 -0 -3 0 -2 -8 -5 1 2 2 1 -1 0 8 0 1 4 7 5 6 5 8 8 8 8 8 6 5 5 5 4 4 3 2 2 0 -0 3 6 6 6 5 7 8 7 6 6 7 7 8 7 5 5 3 3 2 0 2 1 -1 1 5 10 11 10 13 16 16 15 15 12
10 11 8 9 13 17 12 9 8 5 7 8 8 5 3 -5 -6 -3 -1 -1 0 1 3 2 2 1 2 4 2 0 3 5 7 8 10 6 9 9 8 9 7 7 5 4 3 3 3 2 2 2 1 1 2 4 5 5 11 8 8 7 6 6 7 9 9 6 5 4 3 2 1 0 -0 -1 -0 2 6 7 8 11 14 16 17 16 14 13
4 4 7 9 5 13 12 11 10 8 9 8 10 7 -2 -5 -4 -0 -2 -1 2 2 1 3 -4 -6 0 7 2 2 5 5 7 9 10 9 12 11 9 8 6 5 3 3 2 2 2 2 1 1 1 1 2 3 5 5 5 6 7 7 7 7 7 8 6 7 4 3 2 1 1 -0 -1 -1 1 3 7 7 6 9 8 6 8 13 15 14
10 4 5 12 11 15 13 14 14 10 4 8 8 6 5 4 4 2 4 3 1 0 1 -3 -2 1 2 7 5 6 5 8 11 12 15 13 10 8 7 6 4 4 4 3 2 2 0 -0 -0 0 1 1 2 2 4 5 6 7 7 7 6 7 8 8 8 5 4 2 1 1 -0 -1 -0 2 2 5 6 6 5 4 3 2 3 8 8 6
8 1 6 13 15 14 14 14 11 6 0 4 4 3 3 7 7 6 4 1 1 2 -1 0 4 3 5 6 2 4 6 7 9 10 13 8 5 5 4 3 3 5 4 3 2 1 -0 -1 -1 1 0 1 2 3 4 6 6 5 6 7 7 9 8 6 7 3 2 1 1 1 -1 -2 -0 1 2 3 4 3 2 2 2 3 6 5 4 3
1 5 12 12 9 11 15 13 13 15 12 10 1 5 9 10 7 5 -0 2 1 -1 -1 2 1 1 3 0 -2 4 3 8 9 10 7 5 5 4 4 4 5 4 3 2 1 1 1 0 2 1 2 1 2 2 4 5 5 7 8 8 9 8 5 4 3 2 1 1 0 -1 -1 -1 -1 -1 -1 -1 -0 -2 -1 1 2 1 -0 1 1 -1
11 7 6 10 12 13 12 7 5 16 15 8 5 13 5 -1 1 2 -1 -7 -6 -3 -2 0 3 2 2 3 5 5 6 9 7 6 6 5 4 3 2 2 2 1 1 1 1 2 2 2 2 2 2 2 2 5 5 7 8 8 9 10 8 6 5 3 2 1 2 1 -0 -2 -1 -3 -2 -2 -2 -1 1 1 1 -0 -3 -2 -2 -4 -4 -3
13 3 8 11 8 9 7 7 4 3 8 15 15 7 10 3 2 -2 -1 -1 2 -2 -1 -2 1 -2 1 3 4 8 9 6 6 6 3 1 0 -3 -5 -1 -0 1 2 2 2 3 3 3 4 4 3 3 5 5 8 9 9 9 9 7 6 5 3 2 1 1 0 -1 -1 -3 -3 -3 -3 -2 1 1 -3 -6 -6 -6 -6 -6 -7 -7 -4 -5
10 9 2 5 10 7 4 4 2 2 4 5 3 0 5 -1 5 6 -2 -3 -2 1 -0 -2 -4 -1 5 4 5 9 8 7 6 3 -0 -3 -5 -4 -2 -1 1 2 2 3 4 5 5 5 5 5 5 7 9 11 10 9 9 8 8 6 4 2 1 1 1 -0 -1 -2 -4 -5 -5 -4 -4 -5 -2 -2 -4 -5 -6 -7 -6 -9 -10 -7 -8 -7
1 8 4 7 8 4 3 5 4 3 4 8 7 7 6 4 2 0 -1 -0 -4 -3 -2 -2 -5 2 5 5 7 6 7 5 4 0 -2 -2 -2 -2 -2 1 2 2 3 6 5 6 6 7 6 6 11 12 9 6 4 8 8 8 6 4 3 2 1 0 -0 -1 -3 -4 -5 -6 -5 -5 -6 -6 -7 -4 -6 -5 -7 -8 -10 -10 -8 -8 -8 -8
12 11 7 7 9 5 4 5 13 14 10 10 6 6 6 1 -2 -2 -5 -1 2 2 4 3 0 -2 10 3 6 4 6 4 1 -0 -2 -2 -2 -1 1 1 0 4 7 5 4 5 8 7 6 5 7 5 3 1 2 6 9 7 5 3 2 1 0 -0 -2 -3 -4 -6 -6 -6 -6 -7 -8 -8 -7 -4 -4 -6 -9 -10 -10 -7 -5 -5 -5 -4
26 3 5 4 4 6 7 7 6 8 5 7 7 4 5 1 -1 -1 -0 2 1 2 -1 -0 -2 -2 7 8 3 5 4 2 0 -0 -1 -1 -1 2 -4 -7 0 5 1 1 5 7 4 0 -3 -4 -4 -5 -4 -2 -0 7 7 5 3 1 -1 -2 -2 -3 -4 -5 -7 -7 -6 -6 -7 -8 -9 -9 -9 -10 -11 -11 -11 -11 -11 -7 -6 -5 -5 -4
4 7 2 3 4 4 3 4 5 8 7 7 5 5 3 2 1 0 -4 -7 -3 -2 1 1 -5 -4 -1 4 2 5 2 1 0 0 1 0 -0 -8 -12 -3 4 -1 -3 2 2 -4 -6 -7 -7 -6 -5 -4 -3 -2 0 0 -0 0 -2 -5 -6 -5 -4 -4 -6 -8 -9 -6 -6 -7 -8 -9 -9 -10 -10 -11 -11 -11 -11 -9 -7 -6 -6 -6 -6 -5
7 10 1 -1 1 0 0 1 4 6 8 7 7 3 2 -1 -0 2 -5 -7 -3 1 4 1 -2 -0 2 2 2 2 2 0 1 1 1 2 -5 -12 -8 3 1 -4 -1 -0 -4 -6 -7 -6 -5 -5 -4 -5 -5 -4 -4 -7 -9 -6 -7 -8 -4 -4 -5 -7 -8 -8 -6 -6 -6 -7 -8 -9 -10 -10 -11 -10 -10 -9 -9 -7 -7 -6 -6 -6 -7 -7
2 7 7 3 0 4 6 8 7 10 7 7 8 2 -0 0 -3 -2 -2 0 -1 4 2 1 1 2 1 0 2 1 1 1 1 -2 -2 -4 -11 -12 -0 0 -2 -6 -2 -2 -5 -6 -6 -5 -5 -6 -4 -5 -7 -7 -8 -8 -8 -7 -5 -4 -5 -7 -9 -8 -7 -6 -6 -6 -7 -7 -8 -9 -9 -9 -9 -9 -8 -8 -6 -6 -6 -6 -6 -5 -5 -4
-1 2 5 8 8 8 7 7 7 10 7 7 2 0 2 3 -1 -3 2 3 6 3 -4 2 2 -1 -1 1 1 1 1 0 -4 -7 -4 -8 -13 -2 1 -3 2 -9 -3 -4 -6 -7 -6 -6 -6 -7 -8 -8 -9 -7 -7 -6 -5 -4 -6 -9 -10 -11 -8 -7 -6 -6 -6 -7 -7 -8 -8 -8 -7 -7 -6 -6 -6 -5 -5 -4 -5 -5 -4 -3 -3 -2
2 1 1 3 7 9 9 9 8 8 8 7 0 0 2 3 3 2 3 4 4 2 -1 1 -1 -2 -0 0 1 1 1 -2 -7 -7 -7 -11 -9 -0 -1 -5 -6 -7 -6 -5 -6 -5 -5 -6 -8 -9 -10 -8 -6 -5 -5 -6 -7 -6 -8 -9 -9 -8 -7 -6 -6 -6 -7 -7 -8 -8 -8 -6 -5 -5 -5 -5 -5 -5 -5 -3 -3 -2 -1 -1 -1 -0
3 0 -2 2 8 8 8 9 9 8 7 6 -1 1 2 3 3 3 3 3 2 1 1 -1 -1 -0 -0 1 1 1 -0 -5 -7 -7 -9 -12 -4 -5 -6 -8 -9 -9 -8 -6 -5 -5 -8 -10 -10 -8 -6 -4 -6 -5 -5 -7 -10 -11 -9 -8 -7 -6 -6 -6 -7 -7 -8 -8 -8 -8 -7 -6 -6 -5 -5 -4 -4 -3 -2 -2 -1 -0 1 1 1 1
7 7 8 -1 3 8 9 8 7 7 6 5 5 3 3 3 2 3 3 2 2 -1 -2 -1 -0 -1 1 2 1 -1 -4 -7 -7 -8 -12 -13 -5 -6 -7 -8 -9 -9 -7 -6 -4 -6 -8 -8 -7 -7 -9 -9 -11 -12 -11 -8 -9 -8 -8 -7 -7 -7 -8 -8 -8 -8 -8 -8 -7 -7 -6 -6 -5 -4 -4 -3 -2 -1 -0 -1 1 0 1 1 3 3
6 7 3 -2 4 6 6 6 6 6 6 3 2 2 2 2 1 1 1 1 -1 -4 -2 -1 -2 -1 1 0 -2 -5 -5 -7 -10 -13 -12 -10 -9 -9 -9 -8 -8 -8 -7 -5 -8 -9 -10 -8 -9 -10 -10 -10 -10 -10 -10 -9 -9 -9 -9 -8 -8 -8 -8 -8 -9 -8 -8 -7 -7 -6 -6 -5 -4 -3 -2 -0 0 1 1 2 2 2 2 2 2 3
1 3 9 1 6 4 5 6 6 5 4 -9 -3 1 2 2 1 1 1 0 -3 -0 -4 -4 -2 1 -0 -1 -4 -4 -11 -13 -8 -9 -11 -8 -10 -9 -9 -8 -8 -8 -5 -7 -9 -11 -9 -9 -9 -11 -11 -12 -11 -11 -11 -10 -10 -10 -9 -9 -9 -9 -9 -9 -9 -8 -7 -7 -6 -6 -5 -4 -3 -1 -0 1 1 2 2 3 2 3 3 3 4 4
4 3 5 2 1 5 5 5 5 1 -4 -2 0 4 3 1 1 -0 -1 -2 -4 2 2 2 1 2 -1 -4 -6 -5 -7 -12 -15 -13 -8 -11 -11 -9 -8 -8 -9 -6 -6 -9 -11 -11 -10 -10 -9 -10 -12 -12 -11 -11 -11 -10 -10 -10 -9 -10 -9 -9 -10 -9 -8 -8 -7 -6 -5 -5 -4 -3 -1 -1 0 0 1 2 2 2 2 3 4 4 5 5
9 2 5 -9 0 2 4 4 1 -5 -6 1 4 5 4 2 1 0 -1 -4 -3 3 3 2 2 0 -2 -5 -5 -8 -11 -12 -11 -10 -8 -11 -10 -9 -9 -8 -9 -7 -9 -11 -11 -11 -10 -10 -11 -12 -12 -11 -11 -11 -11 -10 -11 -10 -10 -10 -10 -10 -9 -9 -8 -7 -6 -6 -5 -4 -3 -2 -1 -1 -0 1 1 2 2 2 3 3 4 5 5 6
8 6 2 2 -3 -2 -0 2 -4 -3 1 5 5 5 5 2 2 0 -3 -6 0 3 3 2 2 -2 -4 -5 -8 -8 -11 -11 -11 -11 -11 -10 -10 -9 -9 -9 -8 -10 -11 -12 -13 -11 -11 -11 -12 -12 -12 -11 -12 -12 -11 -11 -11 -11 -10 -10 -9 -9 -8 -8 -8 -7 -6 -5 -5 -4 -2 -1 -1 -0 0 1 1 1 2 2 3 3 4 5 5 6
10 -4 -2 3 -0 -0 2 2 -0 2 3 3 3 4 4 1 0 -2 -6 -7 -0 3 3 1 -2 -5 -7 -8 -7 -12 -13 -12 -14 -14 -13 -11 -10 -10 -10 -10 -10 -12 -13 -13 -14 -11 -12 -12 -13 -13 -12 -12 -12 -11 -11 -11 -11 -10 -10 -10 -9 -8 -8 -8 -8 -7 -6 -5 -5 -3 -2 -1 -1 -0 0 1 1 1 1 2 3 3 5 5 6 6
12 4 6 2 -2 -5 1 1 -0 -1 -6 -7 2 6 4 2 2 -1 -3 -4 1 4 3 -1 -5 -5 -6 -10 -15 -14 -12 -13 -13 -11 -12 -11 -9 -11 -10 -11 -12 -13 -13 -14 -15 -11 -11 -13 -13 -13 -13 -13 -12 -12 -12 -11 -10 -10 -10 -10 -9 -9 -9 -8 -7 -6 -5 -4 -3 -2 -1 -1 -1 -0 0 1 1 1 2 2 3 4 5 5 5 6
6 9 4 2 -0 -2 -3 -5 -2 -3 -3 2 4 5 3 3 0 -0 -3 -9 -2 4 3 -3 -6 -6 -7 -10 -16 -13 -12 -16 -14 -10 -11 -10 -10 -10 -12 -12 -14 -14 -14 -15 -14 -13 -13 -14 -13 -12 -12 -13 -12 -11 -12 -11 -10 -9 -10 -9 -9 -8 -8 -8 -7 -6 -5 -4 -2 -2 -2 -1 -0 -0 0 0 1 2 2 3 3 4 6 6 7 7
-1 -5 -1 -3 -3 -2 -2 -8 -11 -11 -4 1 5 4 3 2 0 -6 -22 -23 -2 4 1 -4 -5 -7 -14 -13 -13 -12 -12 -16 -13 -11 -10 -9 -10 -11 -12 -14 -15 -15 -15 -15 -14 -14 -14 -14 -13 -14 -14 -13 -12 -11 -11 -10 -10 -9 -9 -9 -9 -8 -7 -7 -6 -6 -4 -3 -2 -2 -1 -1 -0 0 0 1 2 2 3 4 4 5 5 6 6 7
-6 -2 -7 -1 -4 1 4 -3 -3 -2 1 4 5 4 3 -0 -4 -14 -19 -10 4 3 -1 -6 -7 -8 -15 -16 -13 -12 -11 -12 -11 -11 -9 -10 -12 -13 -13 -14 -15 -15 -15 -15 -15 -11 -15 -14 -13 -14 -13 -12 -11 -11 -11 -10 -10 -10 -9 -9 -8 -8 -7 -6 -6 -4 -4 -3 -3 -2 -2 -1 -0 0 1 2 2 3 3 4 5 5 6 6 7 7
-2 -3 -2 -3 -1 -2 -5 -3 -0 -1 0 3 5 3 3 -4 -11 -10 -0 6 4 -0 -5 -6 -8 -12 -15 -15 -14 -13 -14 -14 -11 -9 -10 -12 -13 -13 -14 -15 -15 -15 -15 -14 -13 -13 -14 -14 -14 -14 -13 -12 -12 -11 -10 -10 -10 -9 -9 -9 -9 -8 -6 -5 -4 -4 -4 -3 -3 -3 -2 -1 0 1 1 2 3 3 3 4 5 6 6 7 7 7
1 -1 -1 -1 1 1 -1 -4 -3 -3 -2 6 4 3 4 -1 -0 5 6 4 1 -5 -6 -7 -11 -15 -17 -14 -12 -12 -13 -13 -11 -10 -11 -13 -13 -14 -15 -16 -16 -16 -16 -16 -16 -15 -14 -15 -14 -14 -13 -12 -12 -11 -10 -10 -9 -9 -8 -9 -8 -7 -5 -5 -4 -4 -4 -4 -4 -2 -1 -0 0 1 1 2 3 3 4 4 5 6 7 7 7 6
2 -1 -5 -5 -2 1 -3 -4 -5 4 4 6 4 2 3 4 7 5 1 -1 -3 -6 -7 -9 -14 -18 -17 -13 -13 -13 -13 -12 -11 -11 -13 -13 -14 -14 -15 -16 -16 -16 -16 -16 -15 -15 -14 -14 -14 -14 -13 -12 -12 -11 -10 -9 -9 -9 -8 -9 -7 -5 -5 -5 -5 -4 -5 -4 -4 -3 -2 -1 0 1 2 2 4 4 4 4 5 6 6 7 7 7
8 1 -2 4 0 3 2 4 8 6 5 7 5 4 5 8 5 -0 -2 -4 -6 -7 -9 -13 -17 -18 -13 -13 -14 -14 -13 -11 -11 -12 -13 -14 -14 -15 -16 -16 -16 -16 -16 -16 -16 -15 -14 -13 -14 -14 -13 -13 -12 -11 -9 -8 -9 -9 -9 -8 -5 -5 -5 -5 -5 -5 -5 -5 -4 -3 -2 -1 0 1 2 3 4 3 4 5 6 6 7 7 7 8
10 6 5 4 3 5 5 6 6 6 5 7 6 6 7 7 2 -2 -4 -6 -7 -12 -12 -14 -17 -15 -12 -13 -14 -14 -12 -11 -11 -13 -14 -14 -15 -15 -15 -16 -16 -16 -16 -16 -16 -15 -14 -13 -13 -14 -14 -13 -13 -11 -9 -9 -8 -9 -8 -6 -6 -5 -5 -5 -6 -6 -6 -5 -5 -4 -2 -1 -0 1 3 3 4 4 5 6 6 6 7 8 8 9
6 8 5 3 5 4 1 4 4 4 6 7 6 6 8 5 -0 -3 -5 -8 -12 -15 -14 -16 -15 -13 -12 -14 -14 -13 -12 -11 -13 -13 -14 -14 -15 -15 -16 -16 -16 -16 -16 -16 -15 -14 -14 -14 -14 -14 -14 -13 -12 -11 -10 -10 -8 -7 -7 -6 -6 -5 -5 -5 -6 -6 -6 -6 -5 -4 -2 -2 -1 1 2 3 3 4 6 7 7 8 8 9 10 11
6 7 5 5 4 4 4 5 5 7 7 7 6 7 7 2 -3 -4 -7 -11 -14 -15 -15 -16 -14 -12 -14 -15 -14 -12 -12 -12 -13 -14 -14 -14 -15 -15 -15 -16 -16 -16 -16 -15 -15 -14 -14 -14 -14 -14 -14 -13 -12 -10 -10 -9 -8 -8 -7 -6 -6 -5 -5 -6 -6 -6 -6 -6 -5 -4 -3 -2 0 1 1 2 3 4 6 7 8 9 11 12 13 12
10 8 1 4 4 5 6 6 7 7 5 5 5 8 4 -2 -5 -5 -8 -12 -15 -15 -15 -15 -13 -13 -14 -14 -12 -12 -12 -13 -13 -14 -15 -15 -15 -15 -15 -16 -16 -16 -16 -16 -15 -14 -14 -15 -14 -14 -14 -13 -12 -11 -10 -10 -9 -8 -7 -6 -6 -5 -6 -6 -6 -6 -7 -6 -5 -4 -2 -1 -0 0 1 3 4 6 7 7 10 12 13 15 17 18
7 6 6 6 4 4 4 5 6 2 -0 1 3 6 0 -4 -5 -7 -10 -13 -15 -15 -15 -15 -14 -13 -14 -13 -12 -12 -13 -13 -14 -14 -15 -15 -15 -16 -16 -15 -16 -16 -16 -15 -14 -15 -15 -14 -15 -14 -14 -13 -12 -11 -11 -10 -9 -8 -7 -6 -6 -5 -6 -6 -6 -6 -6 -5 -5 -4 -2 -1 -1 0 2 3 4 5 7 11 16 15 15 15 19 21
6 7 7 3 -1 5 6 7 7 6 6 6 7 4 -3 -5 -6 -9 -12 -15 -15 -15 -15 -14 -14 -13 -13 -13 -12 -12 -13 -14 -14 -15 -15 -15 -16 -15 -16 -16 -16 -16 -16 -15 -15 -15 -15 -15 -14 -14 -14 -12 -11 -11 -11 -11 -10 -9 -8 -6 -5 -5 -6 -6 -6 -6 -6 -5 -4 -3 -1 -1 -0 1 2 3 4 5 6 7 9 16 17 18 19 19